owner,sensor,date,latitude,longitude,air_pressure(mBar),qcFlag 
COMPS,ioos:station:USF.COMPS:SHP:1,2017-03-01T18:00:00Z,30.0600,-84.2910,1019.13,1111122 
COMPS,ioos:station:USF.COMPS:SHP:1,2017-03-01T18:06:00Z,30.0600,-84.2910,1019.04,1111122 
COMPS,ioos:station:USF.COMPS:SHP:1,2017-03-01T18:12:00Z,30.0600,-84.2910,1019.02,1111122 
COMPS,ioos:station:USF.COMPS:SHP:1,2017-03-01T18:18:00Z,30.0600,-84.2910,1018.92,1111122 
COMPS,ioos:station:USF.COMPS:SHP:1,2017-03-01T18:24:00Z,30.0600,-84.2910,1018.89,1111122 
COMPS,ioos:station:USF.COMPS:SHP:1,2017-03-01T18:30:00Z,30.0600,-84.2910,1018.9,1111122 
COMPS,ioos:station:USF.COMPS:SHP:1,2017-03-01T18:36:00Z,30.0600,-84.2910,1018.85,1111122 
COMPS,ioos:station:USF.COMPS:SHP:1,2017-03-01T18:42:00Z,30.0600,-84.2910,1018.85,1111122 
COMPS,ioos:station:USF.COMPS:SHP:1,2017-03-01T18:48:00Z,30.0600,-84.2910,1018.81,1111122 
COMPS,ioos:station:USF.COMPS:SHP:1,2017-03-01T18:54:00Z,30.0600,-84.2910,1018.7,1111122 
COMPS,ioos:station:USF.COMPS:SHP:1,2017-03-01T19:00:00Z,30.0600,-84.2910,1018.53,1111122 
COMPS,ioos:station:USF.COMPS:SHP:1,2017-03-01T19:06:00Z,30.0600,-84.2910,1018.42,1111122 
COMPS,ioos:station:USF.COMPS:SHP:1,2017-03-01T19:12:00Z,30.0600,-84.2910,1018.28,1111122 
COMPS,ioos:station:USF.COMPS:SHP:1,2017-03-01T19:18:00Z,30.0600,-84.2910,1018.17,1111122 
COMPS,ioos:station:USF.COMPS:SHP:1,2017-03-01T19:24:00Z,30.0600,-84.2910,1018.1,1111122 
COMPS,ioos:station:USF.COMPS:SHP:1,2017-03-01T19:30:00Z,30.0600,-84.2910,1018.02,1111122 
COMPS,ioos:station:USF.COMPS:SHP:1,2017-03-01T19:36:00Z,30.0600,-84.2910,1017.92,1111122 
COMPS,ioos:station:USF.COMPS:SHP:1,2017-03-01T19:42:00Z,30.0600,-84.2910,1017.88,1111122 
COMPS,ioos:station:USF.COMPS:SHP:1,2017-03-01T19:48:00Z,30.0600,-84.2910,1017.76,1111122 
COMPS,ioos:station:USF.COMPS:SHP:1,2017-03-01T19:54:00Z,30.0600,-84.2910,1017.7,1111122 
COMPS,ioos:station:USF.COMPS:SHP:1,2017-03-01T20:00:00Z,30.0600,-84.2910,1017.69,1111122 
COMPS,ioos:station:USF.COMPS:SHP:1,2017-03-01T20:06:00Z,30.0600,-84.2910,1017.72,1111122 
COMPS,ioos:station:USF.COMPS:SHP:1,2017-03-01T20:12:00Z,30.0600,-84.2910,1017.68,1111122 
COMPS,ioos:station:USF.COMPS:SHP:1,2017-03-01T20:18:00Z,30.0600,-84.2910,1017.64,1111122 
COMPS,ioos:station:USF.COMPS:SHP:1,2017-03-01T20:24:00Z,30.0600,-84.2910,1017.49,1111122 
COMPS,ioos:station:USF.COMPS:SHP:1,2017-03-01T20:30:00Z,30.0600,-84.2910,1017.33,1111122 
COMPS,ioos:station:USF.COMPS:SHP:1,2017-03-01T20:36:00Z,30.0600,-84.2910,1017.22,1111122 
COMPS,ioos:station:USF.COMPS:SHP:1,2017-03-01T20:42:00Z,30.0600,-84.2910,1017.22,1111122 
COMPS,ioos:station:USF.COMPS:SHP:1,2017-03-01T20:48:00Z,30.0600,-84.2910,1017.22,1111122 
COMPS,ioos:station:USF.COMPS:SHP:1,2017-03-01T20:54:00Z,30.0600,-84.2910,1017.2,1111122 
COMPS,ioos:station:USF.COMPS:SHP:1,2017-03-01T21:54:00Z,30.0600,-84.2910,1016.92,1111122 
COMPS,ioos:station:USF.COMPS:SHP:1,2017-03-02T15:00:00Z,30.0600,-84.2910,1019.62,1111122 
COMPS,ioos:station:USF.COMPS:SHP:1,2017-03-02T15:06:00Z,30.0600,-84.2910,1019.78,1111122 
COMPS,ioos:station:USF.COMPS:SHP:1,2017-03-02T15:12:00Z,30.0600,-84.2910,1019.93,1111122 
COMPS,ioos:station:USF.COMPS:SHP:1,2017-03-02T15:18:00Z,30.0600,-84.2910,1020.04,1111122 
COMPS,ioos:station:USF.COMPS:SHP:1,2017-03-02T15:24:00Z,30.0600,-84.2910,1020.09,1111122 
COMPS,ioos:station:USF.COMPS:SHP:1,2017-03-02T15:30:00Z,30.0600,-84.2910,1020.14,1111122 
COMPS,ioos:station:USF.COMPS:SHP:1,2017-03-02T15:36:00Z,30.0600,-84.2910,1020.29,1111122 
COMPS,ioos:station:USF.COMPS:SHP:1,2017-03-02T15:42:00Z,30.0600,-84.2910,1020.45,1111122 
COMPS,ioos:station:USF.COMPS:SHP:1,2017-03-02T15:48:00Z,30.0600,-84.2910,1020.5,1111122 
COMPS,ioos:station:USF.COMPS:SHP:1,2017-03-02T15:54:00Z,30.0600,-84.2910,1020.61,1111122 
COMPS,ioos:station:USF.COMPS:SHP:1,2017-03-02T16:00:00Z,30.0600,-84.2910,1020.5,1111122 
COMPS,ioos:station:USF.COMPS:SHP:1,2017-03-02T16:06:00Z,30.0600,-84.2910,1020.49,1111122 
COMPS,ioos:station:USF.COMPS:SHP:1,2017-03-02T16:12:00Z,30.0600,-84.2910,1020.58,1111122 
COMPS,ioos:station:USF.COMPS:SHP:1,2017-03-02T16:18:00Z,30.0600,-84.2910,1020.73,1111122 
COMPS,ioos:station:USF.COMPS:SHP:1,2017-03-02T16:24:00Z,30.0600,-84.2910,1020.68,1111122 
COMPS,ioos:station:USF.COMPS:SHP:1,2017-03-02T16:30:00Z,30.0600,-84.2910,1020.72,1111122 
COMPS,ioos:station:USF.COMPS:SHP:1,2017-03-02T16:36:00Z,30.0600,-84.2910,1020.76,1111122 
COMPS,ioos:station:USF.COMPS:SHP:1,2017-03-02T16:42:00Z,30.0600,-84.2910,1020.84,1111122 
COMPS,ioos:station:USF.COMPS:SHP:1,2017-03-02T16:48:00Z,30.0600,-84.2910,1020.94,1111122 
COMPS,ioos:station:USF.COMPS:SHP:1,2017-03-02T16:54:00Z,30.0600,-84.2910,1021.01,1111122 
COMPS,ioos:station:USF.COMPS:SHP:1,2017-03-02T17:00:00Z,30.0600,-84.2910,1020.88,1111122 
COMPS,ioos:station:USF.COMPS:SHP:1,2017-03-02T17:06:00Z,30.0600,-84.2910,1020.85,1111122 
COMPS,ioos:station:USF.COMPS:SHP:1,2017-03-02T17:12:00Z,30.0600,-84.2910,1020.74,1111122 
COMPS,ioos:station:USF.COMPS:SHP:1,2017-03-02T17:18:00Z,30.0600,-84.2910,1020.74,1111122 
COMPS,ioos:station:USF.COMPS:SHP:1,2017-03-02T17:24:00Z,30.0600,-84.2910,1020.7,1111122 
COMPS,ioos:station:USF.COMPS:SHP:1,2017-03-02T17:30:00Z,30.0600,-84.2910,1020.68,1111122 
COMPS,ioos:station:USF.COMPS:SHP:1,2017-03-02T17:36:00Z,30.0600,-84.2910,1020.68,1111122 
COMPS,ioos:station:USF.COMPS:SHP:1,2017-03-02T17:42:00Z,30.0600,-84.2910,1020.66,1111122 
COMPS,ioos:station:USF.COMPS:SHP:1,2017-03-02T17:48:00Z,30.0600,-84.2910,1020.57,1111122 
COMPS,ioos:station:USF.COMPS:SHP:1,2017-03-02T17:54:00Z,30.0600,-84.2910,1020.65,1111122 
COMPS,ioos:station:USF.COMPS:SHP:1,2017-03-02T18:00:00Z,30.0600,-84.2910,1020.57,1111122 
COMPS,ioos:station:USF.COMPS:SHP:1,2017-03-02T18:06:00Z,30.0600,-84.2910,1020.65,1111122 
COMPS,ioos:station:USF.COMPS:SHP:1,2017-03-02T18:12:00Z,30.0600,-84.2910,1020.65,1111122 
COMPS,ioos:station:USF.COMPS:SHP:1,2017-03-02T18:18:00Z,30.0600,-84.2910,1020.49,1111122 
COMPS,ioos:station:USF.COMPS:SHP:1,2017-03-02T18:24:00Z,30.0600,-84.2910,1020.52,1111122 
COMPS,ioos:station:USF.COMPS:SHP:1,2017-03-02T18:30:00Z,30.0600,-84.2910,1020.53,1111122 
COMPS,ioos:station:USF.COMPS:SHP:1,2017-03-02T18:36:00Z,30.0600,-84.2910,1020.62,1111122 
COMPS,ioos:station:USF.COMPS:SHP:1,2017-03-02T18:42:00Z,30.0600,-84.2910,1020.65,1111122 
COMPS,ioos:station:USF.COMPS:SHP:1,2017-03-02T18:48:00Z,30.0600,-84.2910,1020.52,1111122 
COMPS,ioos:station:USF.COMPS:SHP:1,2017-03-02T18:54:00Z,30.0600,-84.2910,1020.54,1111122 
COMPS,ioos:station:USF.COMPS:SHP:1,2017-03-02T20:00:00Z,30.0600,-84.2910,1020.24,1111122 
COMPS,ioos:station:USF.COMPS:SHP:1,2017-03-02T21:48:00Z,30.0600,-84.2910,1020.76,1111122 
COMPS,ioos:station:USF.COMPS:SHP:1,2017-03-02T21:54:00Z,30.0600,-84.2910,1020.81,1111122 
COMPS,ioos:station:USF.COMPS:SHP:1,2017-03-02T22:00:00Z,30.0600,-84.2910,1020.82,1111122 
COMPS,ioos:station:USF.COMPS:SHP:1,2017-03-02T22:06:00Z,30.0600,-84.2910,1020.88,1111122 
COMPS,ioos:station:USF.COMPS:SHP:1,2017-03-02T22:12:00Z,30.0600,-84.2910,1020.96,1111122 
COMPS,ioos:station:USF.COMPS:SHP:1,2017-03-02T22:18:00Z,30.0600,-84.2910,1021.08,1111122 
COMPS,ioos:station:USF.COMPS:SHP:1,2017-03-02T22:24:00Z,30.0600,-84.2910,1021.14,1111122 
COMPS,ioos:station:USF.COMPS:SHP:1,2017-03-02T22:30:00Z,30.0600,-84.2910,1021.28,1111122 
COMPS,ioos:station:USF.COMPS:SHP:1,2017-03-02T22:36:00Z,30.0600,-84.2910,1021.28,1111122 
COMPS,ioos:station:USF.COMPS:SHP:1,2017-03-02T22:42:00Z,30.0600,-84.2910,1021.4,1111122 
COMPS,ioos:station:USF.COMPS:SHP:1,2017-03-02T22:48:00Z,30.0600,-84.2910,1021.56,1111122 
COMPS,ioos:station:USF.COMPS:SHP:1,2017-03-02T22:54:00Z,30.0600,-84.2910,1021.68,1111122 
COMPS,ioos:station:USF.COMPS:SHP:1,2017-03-02T23:00:00Z,30.0600,-84.2910,1021.78,1111122 
COMPS,ioos:station:USF.COMPS:SHP:1,2017-03-02T23:06:00Z,30.0600,-84.2910,1021.82,1111122 
COMPS,ioos:station:USF.COMPS:SHP:1,2017-03-02T23:12:00Z,30.0600,-84.2910,1021.96,1111122 
COMPS,ioos:station:USF.COMPS:SHP:1,2017-03-02T23:18:00Z,30.0600,-84.2910,1022.08,1111122 
COMPS,ioos:station:USF.COMPS:SHP:1,2017-03-02T23:24:00Z,30.0600,-84.2910,1022.18,1111122 
COMPS,ioos:station:USF.COMPS:SHP:1,2017-03-02T23:30:00Z,30.0600,-84.2910,1022.26,1111122 
COMPS,ioos:station:USF.COMPS:SHP:1,2017-03-02T23:36:00Z,30.0600,-84.2910,1022.33,1111122 
COMPS,ioos:station:USF.COMPS:SHP:1,2017-03-02T23:42:00Z,30.0600,-84.2910,1022.46,1111122 
COMPS,ioos:station:USF.COMPS:SHP:1,2017-03-02T23:48:00Z,30.0600,-84.2910,1022.54,1111122 
COMPS,ioos:station:USF.COMPS:SHP:1,2017-03-02T23:54:00Z,30.0600,-84.2910,1022.69,1111122 
COMPS,ioos:station:USF.COMPS:SHP:1,2017-03-03T00:00:00Z,30.0600,-84.2910,1022.84,1111122 
COMPS,ioos:station:USF.COMPS:SHP:1,2017-03-03T00:06:00Z,30.0600,-84.2910,1022.98,1111122 
COMPS,ioos:station:USF.COMPS:SHP:1,2017-03-03T00:12:00Z,30.0600,-84.2910,1023.04,1111122 
COMPS,ioos:station:USF.COMPS:SHP:1,2017-03-03T00:18:00Z,30.0600,-84.2910,1023.16,1111122 
COMPS,ioos:station:USF.COMPS:SHP:1,2017-03-03T00:24:00Z,30.0600,-84.2910,1023.25,1111122 
COMPS,ioos:station:USF.COMPS:SHP:1,2017-03-03T00:30:00Z,30.0600,-84.2910,1023.32,1111122 
COMPS,ioos:station:USF.COMPS:SHP:1,2017-03-03T00:36:00Z,30.0600,-84.2910,1023.41,1111122 
COMPS,ioos:station:USF.COMPS:SHP:1,2017-03-03T00:42:00Z,30.0600,-84.2910,1023.54,1111122 
COMPS,ioos:station:USF.COMPS:SHP:1,2017-03-03T00:48:00Z,30.0600,-84.2910,1023.61,1111122 
COMPS,ioos:station:USF.COMPS:SHP:1,2017-03-03T00:54:00Z,30.0600,-84.2910,1023.68,1111122 
COMPS,ioos:station:USF.COMPS:SHP:1,2017-03-03T01:00:00Z,30.0600,-84.2910,1023.74,1111122 
COMPS,ioos:station:USF.COMPS:SHP:1,2017-03-03T01:06:00Z,30.0600,-84.2910,1023.84,1111122 
COMPS,ioos:station:USF.COMPS:SHP:1,2017-03-03T01:12:00Z,30.0600,-84.2910,1023.93,1111122 
COMPS,ioos:station:USF.COMPS:SHP:1,2017-03-03T01:18:00Z,30.0600,-84.2910,1024.01,1111122 
COMPS,ioos:station:USF.COMPS:SHP:1,2017-03-03T01:24:00Z,30.0600,-84.2910,1024.08,1111122 
COMPS,ioos:station:USF.COMPS:SHP:1,2017-03-03T01:30:00Z,30.0600,-84.2910,1024.14,1111122 
COMPS,ioos:station:USF.COMPS:SHP:1,2017-03-03T01:36:00Z,30.0600,-84.2910,1024.17,1111122 
COMPS,ioos:station:USF.COMPS:SHP:1,2017-03-03T01:42:00Z,30.0600,-84.2910,1024.21,1111122 
COMPS,ioos:station:USF.COMPS:SHP:1,2017-03-03T01:48:00Z,30.0600,-84.2910,1024.28,1111122 
COMPS,ioos:station:USF.COMPS:SHP:1,2017-03-03T01:54:00Z,30.0600,-84.2910,1024.29,1111122 
COMPS,ioos:station:USF.COMPS:SHP:1,2017-03-03T02:00:00Z,30.0600,-84.2910,1024.37,1111122 
COMPS,ioos:station:USF.COMPS:SHP:1,2017-03-03T02:06:00Z,30.0600,-84.2910,1024.46,1111122 
COMPS,ioos:station:USF.COMPS:SHP:1,2017-03-03T02:12:00Z,30.0600,-84.2910,1024.54,1111122 
COMPS,ioos:station:USF.COMPS:SHP:1,2017-03-03T02:18:00Z,30.0600,-84.2910,1024.61,1111122 
COMPS,ioos:station:USF.COMPS:SHP:1,2017-03-03T02:24:00Z,30.0600,-84.2910,1024.69,1111122 
COMPS,ioos:station:USF.COMPS:SHP:1,2017-03-03T02:30:00Z,30.0600,-84.2910,1024.65,1111122 
COMPS,ioos:station:USF.COMPS:SHP:1,2017-03-03T02:36:00Z,30.0600,-84.2910,1024.74,1111122 
COMPS,ioos:station:USF.COMPS:SHP:1,2017-03-03T02:42:00Z,30.0600,-84.2910,1024.72,1111122 
COMPS,ioos:station:USF.COMPS:SHP:1,2017-03-03T02:48:00Z,30.0600,-84.2910,1024.8,1111122 
COMPS,ioos:station:USF.COMPS:SHP:1,2017-03-03T02:54:00Z,30.0600,-84.2910,1024.84,1111122 
COMPS,ioos:station:USF.COMPS:SHP:1,2017-03-03T03:00:00Z,30.0600,-84.2910,1024.84,1111122 
COMPS,ioos:station:USF.COMPS:SHP:1,2017-03-03T03:06:00Z,30.0600,-84.2910,1024.9,1111122 
COMPS,ioos:station:USF.COMPS:SHP:1,2017-03-03T03:12:00Z,30.0600,-84.2910,1024.96,1111122 
COMPS,ioos:station:USF.COMPS:SHP:1,2017-03-03T03:18:00Z,30.0600,-84.2910,1025.0,1111122 
COMPS,ioos:station:USF.COMPS:SHP:1,2017-03-03T03:24:00Z,30.0600,-84.2910,1025.12,1111122 
COMPS,ioos:station:USF.COMPS:SHP:1,2017-03-03T03:30:00Z,30.0600,-84.2910,1025.12,1111122 
COMPS,ioos:station:USF.COMPS:SHP:1,2017-03-03T03:36:00Z,30.0600,-84.2910,1025.13,1111122 
COMPS,ioos:station:USF.COMPS:SHP:1,2017-03-03T03:42:00Z,30.0600,-84.2910,1025.17,1111122 
COMPS,ioos:station:USF.COMPS:SHP:1,2017-03-03T03:48:00Z,30.0600,-84.2910,1025.2,1111122 
COMPS,ioos:station:USF.COMPS:SHP:1,2017-03-03T03:54:00Z,30.0600,-84.2910,1025.22,1111122 
COMPS,ioos:station:USF.COMPS:SHP:1,2017-03-03T04:00:00Z,30.0600,-84.2910,1025.34,1111122 
COMPS,ioos:station:USF.COMPS:SHP:1,2017-03-03T04:06:00Z,30.0600,-84.2910,1025.44,1111122 
COMPS,ioos:station:USF.COMPS:SHP:1,2017-03-03T04:12:00Z,30.0600,-84.2910,1025.46,1111122 
COMPS,ioos:station:USF.COMPS:SHP:1,2017-03-03T04:18:00Z,30.0600,-84.2910,1025.45,1111122 
COMPS,ioos:station:USF.COMPS:SHP:1,2017-03-03T04:24:00Z,30.0600,-84.2910,1025.53,1111122 
COMPS,ioos:station:USF.COMPS:SHP:1,2017-03-03T04:30:00Z,30.0600,-84.2910,1025.53,1111122 
COMPS,ioos:station:USF.COMPS:SHP:1,2017-03-03T04:36:00Z,30.0600,-84.2910,1025.58,1111122 
COMPS,ioos:station:USF.COMPS:SHP:1,2017-03-03T04:42:00Z,30.0600,-84.2910,1025.57,1111122 
COMPS,ioos:station:USF.COMPS:SHP:1,2017-03-03T04:48:00Z,30.0600,-84.2910,1025.58,1111122 
COMPS,ioos:station:USF.COMPS:SHP:1,2017-03-03T04:54:00Z,30.0600,-84.2910,1025.62,1111122 
COMPS,ioos:station:USF.COMPS:SHP:1,2017-03-03T05:00:00Z,30.0600,-84.2910,1025.64,1111122 
COMPS,ioos:station:USF.COMPS:SHP:1,2017-03-03T05:06:00Z,30.0600,-84.2910,1025.76,1111122 
COMPS,ioos:station:USF.COMPS:SHP:1,2017-03-03T05:12:00Z,30.0600,-84.2910,1025.88,1111122 
COMPS,ioos:station:USF.COMPS:SHP:1,2017-03-03T05:18:00Z,30.0600,-84.2910,1025.96,1111122 
COMPS,ioos:station:USF.COMPS:SHP:1,2017-03-03T05:24:00Z,30.0600,-84.2910,1026.05,1111122 
COMPS,ioos:station:USF.COMPS:SHP:1,2017-03-03T05:30:00Z,30.0600,-84.2910,1026.13,1111122 
COMPS,ioos:station:USF.COMPS:SHP:1,2017-03-03T05:36:00Z,30.0600,-84.2910,1026.14,1111122 
COMPS,ioos:station:USF.COMPS:SHP:1,2017-03-03T05:42:00Z,30.0600,-84.2910,1026.17,1111122 
COMPS,ioos:station:USF.COMPS:SHP:1,2017-03-03T05:48:00Z,30.0600,-84.2910,1026.25,1111122 
COMPS,ioos:station:USF.COMPS:SHP:1,2017-03-03T05:54:00Z,30.0600,-84.2910,1026.3,1111122 
COMPS,ioos:station:USF.COMPS:SHP:1,2017-03-03T06:00:00Z,30.0600,-84.2910,1026.26,1111122 
COMPS,ioos:station:USF.COMPS:SHP:1,2017-03-03T06:06:00Z,30.0600,-84.2910,1026.33,1111122 
COMPS,ioos:station:USF.COMPS:SHP:1,2017-03-03T06:12:00Z,30.0600,-84.2910,1026.34,1111122 
COMPS,ioos:station:USF.COMPS:SHP:1,2017-03-03T06:18:00Z,30.0600,-84.2910,1026.38,1111122 
COMPS,ioos:station:USF.COMPS:SHP:1,2017-03-03T06:24:00Z,30.0600,-84.2910,1026.4,1111122 
COMPS,ioos:station:USF.COMPS:SHP:1,2017-03-03T06:30:00Z,30.0600,-84.2910,1026.34,1111122 
COMPS,ioos:station:USF.COMPS:SHP:1,2017-03-03T06:36:00Z,30.0600,-84.2910,1026.32,1111122 
COMPS,ioos:station:USF.COMPS:SHP:1,2017-03-03T06:42:00Z,30.0600,-84.2910,1026.37,1111122 
COMPS,ioos:station:USF.COMPS:SHP:1,2017-03-03T06:48:00Z,30.0600,-84.2910,1026.45,1111122 
COMPS,ioos:station:USF.COMPS:SHP:1,2017-03-03T06:54:00Z,30.0600,-84.2910,1026.44,1111122 
COMPS,ioos:station:USF.COMPS:SHP:1,2017-03-03T07:00:00Z,30.0600,-84.2910,1026.32,1111122 
COMPS,ioos:station:USF.COMPS:SHP:1,2017-03-03T07:06:00Z,30.0600,-84.2910,1026.29,1111122 
COMPS,ioos:station:USF.COMPS:SHP:1,2017-03-03T07:12:00Z,30.0600,-84.2910,1026.34,1111122 
COMPS,ioos:station:USF.COMPS:SHP:1,2017-03-03T07:18:00Z,30.0600,-84.2910,1026.44,1111122 
COMPS,ioos:station:USF.COMPS:SHP:1,2017-03-03T07:24:00Z,30.0600,-84.2910,1026.44,1111122 
COMPS,ioos:station:USF.COMPS:SHP:1,2017-03-03T07:30:00Z,30.0600,-84.2910,1026.42,1111122 
COMPS,ioos:station:USF.COMPS:SHP:1,2017-03-03T07:36:00Z,30.0600,-84.2910,1026.44,1111122 
COMPS,ioos:station:USF.COMPS:SHP:1,2017-03-03T07:42:00Z,30.0600,-84.2910,1026.46,1111122 
COMPS,ioos:station:USF.COMPS:SHP:1,2017-03-03T07:48:00Z,30.0600,-84.2910,1026.53,1111122 
COMPS,ioos:station:USF.COMPS:SHP:1,2017-03-03T07:54:00Z,30.0600,-84.2910,1026.57,1111122 
COMPS,ioos:station:USF.COMPS:SHP:1,2017-03-03T08:00:00Z,30.0600,-84.2910,1026.69,1111122 
COMPS,ioos:station:USF.COMPS:SHP:1,2017-03-03T08:06:00Z,30.0600,-84.2910,1026.84,1111122 
COMPS,ioos:station:USF.COMPS:SHP:1,2017-03-03T08:12:00Z,30.0600,-84.2910,1026.81,1111122 
COMPS,ioos:station:USF.COMPS:SHP:1,2017-03-03T08:18:00Z,30.0600,-84.2910,1026.84,1111122 
COMPS,ioos:station:USF.COMPS:SHP:1,2017-03-03T08:24:00Z,30.0600,-84.2910,1026.85,1111122 
COMPS,ioos:station:USF.COMPS:SHP:1,2017-03-03T08:30:00Z,30.0600,-84.2910,1026.8,1111122 
COMPS,ioos:station:USF.COMPS:SHP:1,2017-03-03T08:36:00Z,30.0600,-84.2910,1026.82,1111122 
COMPS,ioos:station:USF.COMPS:SHP:1,2017-03-03T08:42:00Z,30.0600,-84.2910,1026.85,1111122 
COMPS,ioos:station:USF.COMPS:SHP:1,2017-03-03T08:48:00Z,30.0600,-84.2910,1027.02,1111122 
COMPS,ioos:station:USF.COMPS:SHP:1,2017-03-03T08:54:00Z,30.0600,-84.2910,1027.1,1111122 
COMPS,ioos:station:USF.COMPS:SHP:1,2017-03-03T09:00:00Z,30.0600,-84.2910,1027.14,1111122 
COMPS,ioos:station:USF.COMPS:SHP:1,2017-03-03T09:06:00Z,30.0600,-84.2910,1027.2,1111122 
COMPS,ioos:station:USF.COMPS:SHP:1,2017-03-03T09:12:00Z,30.0600,-84.2910,1027.22,1111122 
COMPS,ioos:station:USF.COMPS:SHP:1,2017-03-03T09:18:00Z,30.0600,-84.2910,1027.37,1111122 
COMPS,ioos:station:USF.COMPS:SHP:1,2017-03-03T09:24:00Z,30.0600,-84.2910,1027.48,1111122 
COMPS,ioos:station:USF.COMPS:SHP:1,2017-03-03T09:30:00Z,30.0600,-84.2910,1027.66,1111122 
COMPS,ioos:station:USF.COMPS:SHP:1,2017-03-03T09:36:00Z,30.0600,-84.2910,1027.86,1111122 
COMPS,ioos:station:USF.COMPS:SHP:1,2017-03-03T09:42:00Z,30.0600,-84.2910,1028.01,1111122 
COMPS,ioos:station:USF.COMPS:SHP:1,2017-03-03T09:48:00Z,30.0600,-84.2910,1028.09,1111122 
COMPS,ioos:station:USF.COMPS:SHP:1,2017-03-03T09:54:00Z,30.0600,-84.2910,1028.14,1111122 
COMPS,ioos:station:USF.COMPS:SHP:1,2017-03-03T10:00:00Z,30.0600,-84.2910,1028.16,1111122 
COMPS,ioos:station:USF.COMPS:SHP:1,2017-03-03T10:06:00Z,30.0600,-84.2910,1028.33,1111122 
COMPS,ioos:station:USF.COMPS:SHP:1,2017-03-03T10:12:00Z,30.0600,-84.2910,1028.44,1111122 
COMPS,ioos:station:USF.COMPS:SHP:1,2017-03-03T10:18:00Z,30.0600,-84.2910,1028.48,1111122 
COMPS,ioos:station:USF.COMPS:SHP:1,2017-03-03T10:24:00Z,30.0600,-84.2910,1028.64,1111122 
COMPS,ioos:station:USF.COMPS:SHP:1,2017-03-03T10:30:00Z,30.0600,-84.2910,1028.73,1111122 
COMPS,ioos:station:USF.COMPS:SHP:1,2017-03-03T10:36:00Z,30.0600,-84.2910,1028.8,1111122 
COMPS,ioos:station:USF.COMPS:SHP:1,2017-03-03T10:42:00Z,30.0600,-84.2910,1028.93,1111122 
COMPS,ioos:station:USF.COMPS:SHP:1,2017-03-03T10:48:00Z,30.0600,-84.2910,1029.06,1111122 
COMPS,ioos:station:USF.COMPS:SHP:1,2017-03-03T10:54:00Z,30.0600,-84.2910,1029.25,1111122 
COMPS,ioos:station:USF.COMPS:SHP:1,2017-03-03T11:00:00Z,30.0600,-84.2910,1029.32,1111122 
COMPS,ioos:station:USF.COMPS:SHP:1,2017-03-03T11:06:00Z,30.0600,-84.2910,1029.3,1111122 
COMPS,ioos:station:USF.COMPS:SHP:1,2017-03-03T11:12:00Z,30.0600,-84.2910,1029.4,1111122 
COMPS,ioos:station:USF.COMPS:SHP:1,2017-03-03T11:18:00Z,30.0600,-84.2910,1029.56,1111122 
COMPS,ioos:station:USF.COMPS:SHP:1,2017-03-03T11:24:00Z,30.0600,-84.2910,1029.73,1111122 
COMPS,ioos:station:USF.COMPS:SHP:1,2017-03-03T11:30:00Z,30.0600,-84.2910,1029.8,1111122 
COMPS,ioos:station:USF.COMPS:SHP:1,2017-03-03T11:36:00Z,30.0600,-84.2910,1029.93,1111122 
COMPS,ioos:station:USF.COMPS:SHP:1,2017-03-03T11:42:00Z,30.0600,-84.2910,1030.0,1111122 
COMPS,ioos:station:USF.COMPS:SHP:1,2017-03-03T11:48:00Z,30.0600,-84.2910,1030.08,1111122 
COMPS,ioos:station:USF.COMPS:SHP:1,2017-03-03T11:54:00Z,30.0600,-84.2910,1030.14,1111122 
COMPS,ioos:station:USF.COMPS:SHP:1,2017-03-03T12:00:00Z,30.0600,-84.2910,1030.22,1111122 
COMPS,ioos:station:USF.COMPS:SHP:1,2017-03-03T12:06:00Z,30.0600,-84.2910,1030.32,1111122 
COMPS,ioos:station:USF.COMPS:SHP:1,2017-03-03T12:12:00Z,30.0600,-84.2910,1030.33,1111122 
COMPS,ioos:station:USF.COMPS:SHP:1,2017-03-03T12:18:00Z,30.0600,-84.2910,1030.46,1111122 
COMPS,ioos:station:USF.COMPS:SHP:1,2017-03-03T12:24:00Z,30.0600,-84.2910,1030.57,1111122 
COMPS,ioos:station:USF.COMPS:SHP:1,2017-03-03T12:30:00Z,30.0600,-84.2910,1030.58,1111122 
COMPS,ioos:station:USF.COMPS:SHP:1,2017-03-03T12:36:00Z,30.0600,-84.2910,1030.66,1111122 
COMPS,ioos:station:USF.COMPS:SHP:1,2017-03-03T12:42:00Z,30.0600,-84.2910,1030.68,1111122 
COMPS,ioos:station:USF.COMPS:SHP:1,2017-03-03T12:48:00Z,30.0600,-84.2910,1030.85,1111122 
COMPS,ioos:station:USF.COMPS:SHP:1,2017-03-03T12:54:00Z,30.0600,-84.2910,1031.01,1111122 
COMPS,ioos:station:USF.COMPS:SHP:1,2017-03-03T13:00:00Z,30.0600,-84.2910,1031.14,1111122 
COMPS,ioos:station:USF.COMPS:SHP:1,2017-03-03T13:06:00Z,30.0600,-84.2910,1031.28,1111122 
COMPS,ioos:station:USF.COMPS:SHP:1,2017-03-03T13:12:00Z,30.0600,-84.2910,1031.24,1111122 
COMPS,ioos:station:USF.COMPS:SHP:1,2017-03-03T13:18:00Z,30.0600,-84.2910,1031.37,1111122 
COMPS,ioos:station:USF.COMPS:SHP:1,2017-03-03T13:24:00Z,30.0600,-84.2910,1031.42,1111122 
COMPS,ioos:station:USF.COMPS:SHP:1,2017-03-03T13:30:00Z,30.0600,-84.2910,1031.49,1111122 
COMPS,ioos:station:USF.COMPS:SHP:1,2017-03-03T13:36:00Z,30.0600,-84.2910,1031.62,1111122 
COMPS,ioos:station:USF.COMPS:SHP:1,2017-03-03T13:42:00Z,30.0600,-84.2910,1031.65,1111122 
COMPS,ioos:station:USF.COMPS:SHP:1,2017-03-03T13:48:00Z,30.0600,-84.2910,1031.68,1111122 
COMPS,ioos:station:USF.COMPS:SHP:1,2017-03-03T13:54:00Z,30.0600,-84.2910,1031.78,1111122 
COMPS,ioos:station:USF.COMPS:SHP:1,2017-03-03T14:00:00Z,30.0600,-84.2910,1031.8,1111122 
COMPS,ioos:station:USF.COMPS:SHP:1,2017-03-03T14:06:00Z,30.0600,-84.2910,1031.85,1111122 
COMPS,ioos:station:USF.COMPS:SHP:1,2017-03-03T14:12:00Z,30.0600,-84.2910,1031.8,1111122 
COMPS,ioos:station:USF.COMPS:SHP:1,2017-03-03T14:18:00Z,30.0600,-84.2910,1031.73,1111122 
COMPS,ioos:station:USF.COMPS:SHP:1,2017-03-03T14:24:00Z,30.0600,-84.2910,1031.73,1111122 
COMPS,ioos:station:USF.COMPS:SHP:1,2017-03-03T14:30:00Z,30.0600,-84.2910,1031.68,1111122 
COMPS,ioos:station:USF.COMPS:SHP:1,2017-03-03T14:36:00Z,30.0600,-84.2910,1031.78,1111122 
COMPS,ioos:station:USF.COMPS:SHP:1,2017-03-03T14:42:00Z,30.0600,-84.2910,1031.74,1111122 
COMPS,ioos:station:USF.COMPS:SHP:1,2017-03-03T14:48:00Z,30.0600,-84.2910,1031.76,1111122 
COMPS,ioos:station:USF.COMPS:SHP:1,2017-03-03T14:54:00Z,30.0600,-84.2910,1031.74,1111122 
COMPS,ioos:station:USF.COMPS:SHP:1,2017-03-03T15:00:00Z,30.0600,-84.2910,1031.64,1111122 
COMPS,ioos:station:USF.COMPS:SHP:1,2017-03-03T15:06:00Z,30.0600,-84.2910,1031.69,1111122 
COMPS,ioos:station:USF.COMPS:SHP:1,2017-03-03T15:12:00Z,30.0600,-84.2910,1031.69,1111122 
COMPS,ioos:station:USF.COMPS:SHP:1,2017-03-03T15:18:00Z,30.0600,-84.2910,1031.72,1111122 
COMPS,ioos:station:USF.COMPS:SHP:1,2017-03-03T15:24:00Z,30.0600,-84.2910,1031.65,1111122 
COMPS,ioos:station:USF.COMPS:SHP:1,2017-03-03T15:30:00Z,30.0600,-84.2910,1031.64,1111122 
COMPS,ioos:station:USF.COMPS:SHP:1,2017-03-03T15:36:00Z,30.0600,-84.2910,1031.62,1111122 
COMPS,ioos:station:USF.COMPS:SHP:1,2017-03-03T15:42:00Z,30.0600,-84.2910,1031.69,1111122 
COMPS,ioos:station:USF.COMPS:SHP:1,2017-03-03T15:48:00Z,30.0600,-84.2910,1031.69,1111122 
COMPS,ioos:station:USF.COMPS:SHP:1,2017-03-03T15:54:00Z,30.0600,-84.2910,1031.73,1111122 
COMPS,ioos:station:USF.COMPS:SHP:1,2017-03-03T16:00:00Z,30.0600,-84.2910,1031.74,1111122 
COMPS,ioos:station:USF.COMPS:SHP:1,2017-03-03T16:06:00Z,30.0600,-84.2910,1031.8,1111122 
COMPS,ioos:station:USF.COMPS:SHP:1,2017-03-03T16:12:00Z,30.0600,-84.2910,1031.68,1111122 
COMPS,ioos:station:USF.COMPS:SHP:1,2017-03-03T16:18:00Z,30.0600,-84.2910,1031.73,1111122 
COMPS,ioos:station:USF.COMPS:SHP:1,2017-03-03T16:24:00Z,30.0600,-84.2910,1031.72,1111122 
COMPS,ioos:station:USF.COMPS:SHP:1,2017-03-03T16:30:00Z,30.0600,-84.2910,1031.68,1111122 
COMPS,ioos:station:USF.COMPS:SHP:1,2017-03-03T16:36:00Z,30.0600,-84.2910,1031.66,1111122 
COMPS,ioos:station:USF.COMPS:SHP:1,2017-03-03T16:42:00Z,30.0600,-84.2910,1031.6,1111122 
COMPS,ioos:station:USF.COMPS:SHP:1,2017-03-03T16:48:00Z,30.0600,-84.2910,1031.56,1111122 
COMPS,ioos:station:USF.COMPS:SHP:1,2017-03-03T16:54:00Z,30.0600,-84.2910,1031.42,1111122 
COMPS,ioos:station:USF.COMPS:SHP:1,2017-03-03T17:00:00Z,30.0600,-84.2910,1031.34,1111122 
COMPS,ioos:station:USF.COMPS:SHP:1,2017-03-03T17:06:00Z,30.0600,-84.2910,1031.33,1111122 